OBJECT N

Satellite information

Favourite Embed

Satellite Type and Status

UNKNOWNIN ORBIT

Key statistics

Satellite OBJECT N at a glance.

Uptime

1969

Days in orbit

Revolutions

≈ 15.2

Per day

Orbit

SSO

Sun Synchronous Orbit

Inclination

98.0

Latest

Satellite identification and parameters

Extended collection of information and parameters for OBJECT N.

Object identification

Identified? True

Debris? False

Object name: OBJECT N

International designator: 2019-093N

Object number (NORAD): 44891

Object ID (CCSDS): 44891

Country: TO BE DETERMINED/UNKNOWN (TBD)

Current information (Y/N): Y

RCS size: SMALL

Orbital parameters

Period: 95.011 minutes

Inclination: 98.0186 deg

SMA: 6897.24 km

Apoapsis: 525.046 km

Periapsis: 513.163 km

RAAN: 263.5967 deg

Eccentricy: 0.0008614

Argument of periapsis: 4.649 deg

Mean anomaly: 355.4819 deg

Mean motion: 15.15618139 rev/day

Mean motion (dot): 0.000151 rev/day2

B* drag term: 0.00079686 1/REarth

Two-line elements (TLE)

Creation date: May 11, 2025, 2:40 a.m.

Reference frame: TEME

Reference center: EARTH

Epoch: May 10, 2025, 10:15 p.m. UTC

TLE line 0: 0 OBJECT N

TLE line 1: 1 44891U 19093N 25130.92742800 .00015100 00000-0 79686-3 0 9997

TLE line 2: 2 44891 98.0186 263.5967 0008614 4.6490 355.4819 15.15618139293504

Live tracking on map

Real-time ground track for satellite OBJECT N.

In-orbit conjunctions

There are no conjunctions computed for OBJECT N, at the moment. Check back to stay up to date, as we update our databases every day.

Go to all conjunctions

Associated space launch

On April 24, 2015, China and Brazil have signed the agreement for the construction of CBERS-4A. It's a third satellite in the continuity to the CBERS program, and a sixth CBERS satellite to be constructed. The CBERS satellites enhance and complement the existing remote sensing systems in an effort to improve our knowledge about the Earth environment and resources.

OBJECT N was lifted into orbit during the mission ‘Long March 4B | CBERS-4A’, on board a Long March 4B space rocket.

The launch took place on Dec. 20, 2019, 3:22 a.m. from Launch Complex 9.

For more information about the launch, click the button.

Launch to space Long March 4B | CBERS-4A
Long March 4B | CBERS-4A

Agency: N/A

Status: Launch Successful

Launch date: Dec. 20, 2019, 3:22 a.m. UTC

Rocket: Long March 4B

Launch pad: Launch Complex 9

Location: Taiyuan Satellite Launch Center, People's Republic of China

...

Latest news about this satellite

News about space launch
Long March 4B lofts CBERS-04A and Ethiopia’s first satellite


Newsletter sign-up

Weekly statistics, charts and insights to help you stay on top of the space industry.